Regional Weather Roundup
Issued by NWS

Home | Current Version | Previous Version | Graphics & Text | Print | Product List | Glossary On
Versions: 1 2 3 4 5 6 7 8 9 10 11 12 13 14 15 16 17 18 19 20 21 22 23 24 25 26 27 28 29 30 31 32 33 34 35 36 37 38 39 40 41 42 43 44 45 46 47 48 49 50
000
ASUS45 KTFX 270319
RWRMT
MONTANA HOURLY WEATHER ROUNDUP
NATIONAL WEATHER SERVICE GREAT FALLS MT
819 PM MST FRI DEC 26 2014

NOTE: "FAIR" INDICATES FEW OR NO CLOUDS BELOW 12000 FEET WITH NO
SIGNIFICANT WEATHER AND/OR OBSTRUCTIONS TO VISIBILITY.

* THESE STATIONS ARE NOT UNDER NWS QUALITY CONTROL. THEY DO NOT
   REPORT WEATHER SUCH AS PRECIPITATION OR FOG.

MTZ001>007-043-270400-
WEST OF THE DIVIDE
CITY           SKY/WX    TMP DP  RH WIND       PRES   REMARKS
KALISPELL      MOCLDY    19  18  96 CALM      30.19R
MISSOULA       CLOUDY    25  21  85 W3        30.22R
BUTTE          CLOUDY     5   1  83 CALM      30.10R
MULLAN PASS    CLOUDY    18  12  77 VRB6      30.07S WCI  10
* ESSEX        N/A       21  19  92 N/A        N/A
* HAMILTON APT PTCLDY    21  16  81 SE6       30.20R WCI  13
* LIBBY APT    CLEAR     16  12  84 CALM      30.24R
* LINCOLN      N/A       21  15  78 S5G10      N/A   WCI  14
* LOOKOUT PASS N/A       18  16  92 N1         N/A
* POLSON       N/A       25  24  96 N/A        N/A
* RONAN APT    PTCLDY    27  23  85 N/A        N/A
* SEELEY LAKE  N/A       17  14  88 NE2        N/A
* THOMP F APT  CLEAR     15   6  67 N/A        N/A
$$

MTZ008-052>055-270400-
SOUTHWEST MONTANA
CITY           SKY/WX    TMP DP  RH WIND       PRES   REMARKS
BOZEMAN        FOG        7   3  83 S3        30.14S
DILLON         MOCLDY    16   9  74 S7        30.09R WCI   6
* W YELLOWSTON PTCLDY   N/A N/A N/A N/A        N/A
* THREE FORKS  CLEAR      3   3 100 N/A        N/A
* BOULDER HILL N/A       12   7  80 SW7        N/A   WCI   1
* MONIDA PASS  N/A       11   8  88 SW3        N/A
* RAYNOLDS PAS N/A       12 -10  36 N6         N/A   WCI   2
* WHITEHALL    N/A       11   7  84 NW3G10     N/A
* WISE RIVER   N/A       13   6  73 S1G8       N/A
$$

MTZ009>010-012-014-046-048-049-054-270400-
EAST SLOPES AND CENTRAL MONTANA
CITY           SKY/WX    TMP DP  RH WIND       PRES   REMARKS
CUT BANK       PTCLDY    10   5  80 NW6       30.03F
GREAT FALLS    CLEAR     12   9  88 S12       30.07S WCI  -2
HELENA         CLEAR     16  10  77 SW6       30.14R WCI   7
MALMSTROM AFB  CLEAR     10   7  88 SW12      30.10S WCI  -5
* CONRAD       PTCLDY     7   3  83 W5         N/A   WCI  -2
* EAST GLACIER N/A       20   9  62 W22G27     N/A   WCI   4
* MONARCH      N/A       11   6  80 S10        N/A   WCI  -2
* PENDROY      N/A       13   8  80 SW4        N/A
* SWEET GRASS  N/A       12  10  92 SW9        N/A
* WHITE SULPH  N/A        1  -4  79 W1G9       N/A
$$

MTZ011-013-016-021-035-040-045-047-050-051-270400-
NORTH CENTRAL MONTANA
CITY           SKY/WX    TMP DP  RH WIND       PRES   REMARKS
HAVRE          CLEAR     12  10  92 W5        30.12F WCI   4
LEWISTOWN      CLEAR      7   3  83 SE7       30.07F WCI  -5
* N BAR RANCH  CLEAR     10   3  73 NW7       30.07S WCI  -1
* CHINOOK      CLEAR     16  12  84 SW5       30.13S WCI   8
* CHESTER      N/A       10   6  84 S1         N/A
* DENTON       N/A        5   2  87 S2         N/A
* JUDITH GAP   N/A        8   6  91 S2         N/A
* LOMA         N/A       13  11  92 E1         N/A
$$

MTZ017>020-022>027-061-062-270400-
NORTHEAST MONTANA
CITY           SKY/WX    TMP DP  RH WIND       PRES   REMARKS
GLASGOW        CLEAR     19  14  81 NW12      30.12R WCI   6
GLENDIVE       CLOUDY    25  19  78 SW5       30.11S WCI  19
JORDAN         CLEAR     21  18  88 NW7       30.13R WCI  12
SIDNEY         CLOUDY    21  18  88 SE3       30.13S
WOLF POINT     CLOUDY    19  16  88 W3        30.13F
* BEAVER HILL  N/A       20  15  81 S9         N/A   WCI  10
* CIRCLE       N/A       26  19  75 W4G11      N/A
* LINDSAY DVD  N/A       23  20  88 W13        N/A   WCI  11
* NAVAJO       N/A       18  15  88 NW8        N/A   WCI   8
* PLENTYWOOD A CLEAR     16  12  84 CALM      30.08F
* POPLAR APT   CLEAR     19  16  88 CALM      30.13S
* SACO         N/A       13  11  92 W4         N/A
$$

MTZ028>042-056>058-270400-
SOUTHCENTRAL AND SOUTHEAST MONTANA
CITY           SKY/WX    TMP DP  RH WIND       PRES   REMARKS
BAKER          CLOUDY    12   9  88 S3        30.10F
BILLINGS       FAIR      18  14  84 S8        30.12S WCI   8
LIVINGSTON     PTCLDY    12   9  88 W8        30.10R
MILES CITY     CLOUDY    21  19  92 W8        30.12R WCI  11
* BIG TIMBER A PTCLDY    12   9  88 CALM      30.09F
* FORSYTH APT  PTCLDY    25  19  78 W6        30.14S WCI  18
* LAUREL APT   PTCLDY    18   9  68 W7         N/A   WCI   9
* ROUNDUP APT  CLEAR     12   3  67 W5         N/A   WCI   4
* ALZADA       N/A       10   8  92 W3         N/A
* REED POINT   N/A       11   9  92 SE1        N/A
* ROSCOE HILL  N/A       14   6  70 SE4        N/A
$$

REGIONAL REPORTS...DAKOTAS
CITY           SKY/WX    TMP DP  RH WIND       PRES   REMARKS
WILLISTON      CLOUDY    19  16  88 CALM      30.11F
DICKINSON      PTCLDY     9   5  84 S7        30.09F WCI  -2
BEACH          CLOUDY    19  16  88 SW8       30.10F WCI   9
CROSBY         CLOUDY    18  18 100 SW9       30.10F WCI   7
TIOGA          CLOUDY    18  18 100 SW8       30.12F WCI   8
WATFORD CITY   CLOUDY    18  16  92 CALM      30.09F
BISMARCK       PTCLDY     3   0  87 CALM      30.20S
GRAND FORKS    LGT SNOW   7   3  83 N6        30.25S WCI  -4
FARGO          MOCLDY    10   3  73 N10       30.24S WCI  -4
BUFFALO SD     CLEAR     16  10  77 W5        30.04R WCI   8
RAPID CITY     CLOUDY    18  12  77 CALM      30.12S
$$

REGIONAL REPORTS...WYOMING/IDAHO/WASHINGTON
CITY           SKY/WX    TMP DP  RH WIND       PRES   REMARKS
GILLETTE       CLEAR     10   7  88 SW7       30.06S WCI  -1
SHERIDAN       CLOUDY    21  12  68 NW12      30.09S WCI   9
CODY           CLOUDY    16  16 100 CALM      30.06S
YELLOWSTONE LA PTCLDY     9   3  76 NW6       29.99S WCI  -1
SALMON         CLOUDY    19  16  88 CALM      30.20R
MULLAN PASS    CLOUDY    18  12  77 VRB6      30.07S WCI  10
SAND POINT     PTCLDY    28  28 100 S6        30.27R WCI  21
SPOKANE        CLEAR     27  25  92 CALM      30.26R
$$

REGIONAL REPORTS...ALBERTA
CITY           SKY/WX    TMP DP  RH WIND       PRES   REMARKS
CALGARY        MOCLDY    18   9  68 S5        29.97F WCI  11
MEDICINE HAT   N/A       18  16  92 SW13      30.06F WCI   5
EDMONTON       CLOUDY    18  14  84 S5        29.99S WCI  11
WATERTON GATE  N/A       23  12  63 SW22G31    N/A   WCI   8
CARDSTON       N/A       14   9  80 SW5        N/A   WCI   6
MILK RIVER     N/A        9   5  84 W6         N/A   WCI  -1
$$

REGIONAL REPORTS...SASKATCHEWAN
CITY           SKY/WX    TMP DP  RH WIND       PRES   REMARKS
SWIFT CURRENT  LGT SNOW   9   7  91 SW13      30.03S WCI  -7
REGINA         LGT SNOW   9   7  91 S5        30.08F
VAL MARIE      N/A        3   1  91 S3         N/A
ASSINIBOIA     N/A       14  10  84 W9         N/A   WCI   2

$$



USA.gov is the U.S. government's official web portal to all federal, state and local government web resources and services.